Location: Kielce
(50.8833°N, 20.6167°E)
Time: 21:56:08
(UTC+02:00)

Vanguard 2 Rocket - Pass Details

Date: 19 April 2021
Orbit: 553 x 3326 km, 32.9° (Epoch: 06 May)

Event Time Altitude Azimuth Distance (km) Brightness Sun altitude
Rises 19:58:24 0° 273° (W) 7,260 13.1 -3.6°
Reaches altitude 10° 20:05:10 10° 261° (W) 6,022 12.1 -4.5°
Maximum altitude 20:16:53 22° 221° (SW) 4,384 10.5 -6.2°
Drops below altitude 10° 20:25:54 10° 177° (S) 4,481 10.1 -7.5°
Sets 20:29:57 0° 162° (SSE) 5,037 10.3 -8.0°
